• In Deutschland
  • Länderverzeichnis
  • Für 7 Tage
  • Wassertemperatur
  • Satellitenkarten
  • Wetterkarte
  • Widgets
  • user-avatar
    Anmelden

    Stündliche Wetter Daverdisse

    Heute, 19 Juni, Dienstag

    Zeit Temperatur Niederschläge Wind Luftdruck Luftfeuchtigkeit
    00:00 +13°C° 0 mm 2 m/S 733 mmHg 97%
    01:00 +13°C° 0 mm 2 m/S 733 mmHg 97%
    02:00 +13°C° 0 mm 2 m/S 733 mmHg 98%
    03:00 +12°C° 0 mm 2 m/S 733 mmHg 98%
    04:00 +13°C° 0 mm 2 m/S 733 mmHg 97%
    05:00 +14°C° 0 mm 2 m/S 734 mmHg 97%
    06:00 +14°C° 0 mm 3 m/S 734 mmHg 96%
    07:00 +15°C° 0 mm 2 m/S 734 mmHg 95%
    08:00 +15°C° 0 mm 2 m/S 734 mmHg 94%
    09:00 +16°C° 0 mm 2 m/S 735 mmHg 94%
    10:00 +17°C° 0 mm 2 m/S 735 mmHg 92%
    11:00 +17°C° 0 mm 2 m/S 735 mmHg 90%
    12:00 +18°C° 0 mm 2 m/S 735 mmHg 88%
    13:00 +18°C° 0 mm 2 m/S 735 mmHg 86%
    14:00 +19°C° 0 mm 2 m/S 735 mmHg 84%
    15:00 +19°C° 0 mm 2 m/S 735 mmHg 82%
    16:00 +19°C° 0 mm 2 m/S 735 mmHg 84%
    17:00 +19°C° 0 mm 2 m/S 735 mmHg 86%
    18:00 +20°C° 0 mm 1 m/S 734 mmHg 88%
    19:00 +19°C° 0 mm 1 m/S 734 mmHg 90%
    20:00 +18°C° 0 mm 1 m/S 734 mmHg 93%
    21:00 +16°C° 0 mm 1 m/S 734 mmHg 95%
    22:00 +16°C° 0 mm 1 m/S 734 mmHg 95%
    23:00 +15°C° 0 mm 1 m/S 734 mmHg 96%

    Morgen, 20 Juni, Mittwoch

    Zeit Temperatur Niederschläge Wind Luftdruck Luftfeuchtigkeit
    00:00 +14°C° 0 mm 1 m/S 734 mmHg 96%
    01:00 +14°C° 0 mm 1 m/S 734 mmHg 96%
    02:00 +14°C° 0 mm 1 m/S 734 mmHg 96%
    03:00 +13°C° 0 mm 1 m/S 734 mmHg 97%
    04:00 +15°C° 0 mm 1 m/S 734 mmHg 95%
    05:00 +16°C° 0 mm 1 m/S 734 mmHg 94%
    06:00 +18°C° 0 mm 1 m/S 734 mmHg 93%
    07:00 +20°C° 0 mm 1 m/S 734 mmHg 86%
    08:00 +22°C° 0 mm 1 m/S 734 mmHg 79%
    09:00 +24°C° 0 mm 1 m/S 734 mmHg 72%
    10:00 +24°C° 0 mm 1 m/S 734 mmHg 70%
    11:00 +25°C° 0 mm 1 m/S 734 mmHg 67%
    12:00 +26°C° 0 mm 1 m/S 733 mmHg 64%
    13:00 +26°C° 0 mm 1 m/S 733 mmHg 65%
    14:00 +26°C° 0 mm 2 m/S 733 mmHg 66%
    15:00 +25°C° 0 mm 2 m/S 732 mmHg 67%
    16:00 +25°C° 0 mm 2 m/S 732 mmHg 72%
    17:00 +24°C° 0 mm 2 m/S 732 mmHg 76%
    18:00 +23°C° 0 mm 2 m/S 732 mmHg 81%
    19:00 +21°C° 0 mm 2 m/S 731 mmHg 86%
    20:00 +19°C° 0 mm 2 m/S 731 mmHg 90%
    21:00 +18°C° 0 mm 1 m/S 731 mmHg 95%
    22:00 +18°C° 0 mm 1 m/S 731 mmHg 95%
    23:00 +16°C° 0 mm 1 m/S 731 mmHg 96%

    übermorgen, 21 Juni, Donnerstag

    Zeit Temperatur Niederschläge Wind Luftdruck Luftfeuchtigkeit
    00:00 +15°C° 0 mm 1 m/S 731 mmHg 96%
    01:00 +15°C° 0 mm 1 m/S 730 mmHg 97%
    02:00 +14°C° 0 mm 1 m/S 730 mmHg 97%
    03:00 +14°C° 0 mm 2 m/S 730 mmHg 98%
    04:00 +14°C° 0 mm 2 m/S 730 mmHg 97%
    05:00 +15°C° 0 mm 2 m/S 730 mmHg 96%
    06:00 +14°C° 0 mm 3 m/S 730 mmHg 95%
    07:00 +14°C° 0,1 mm 3 m/S 730 mmHg 94%
    08:00 +14°C° 0,1 mm 4 m/S 730 mmHg 92%
    09:00 +14°C° 0,1 mm 5 m/S 731 mmHg 90%
    10:00 +15°C° 0 mm 5 m/S 731 mmHg 83%
    11:00 +15°C° 0 mm 5 m/S 731 mmHg 75%
    12:00 +15°C° 0 mm 5 m/S 732 mmHg 68%
    13:00 +15°C° 0 mm 5 m/S 732 mmHg 65%
    14:00 +15°C° 0 mm 5 m/S 732 mmHg 62%
    15:00 +15°C° 0 mm 6 m/S 732 mmHg 58%
    16:00 +14°C° 0 mm 5 m/S 732 mmHg 62%
    17:00 +13°C° 0 mm 5 m/S 732 mmHg 65%
    18:00 +12°C° 0 mm 5 m/S 732 mmHg 69%
    19:00 +11°C° 0 mm 4 m/S 733 mmHg 74%
    20:00 +8°C° 0 mm 4 m/S 733 mmHg 79%
    21:00 +7°C° 0 mm 3 m/S 734 mmHg 84%
    22:00 +5°C° 0 mm 3 m/S 734 mmHg 87%
    23:00 +6°C° 0 mm 2 m/S 734 mmHg 91%

    22 Juni, Freitag

    Zeit Temperatur Niederschläge Wind Luftdruck Luftfeuchtigkeit
    00:00 +5°C° 0 mm 2 m/S 734 mmHg 94%
    01:00 +5°C° 0 mm 2 m/S 734 mmHg 94%
    02:00 +4°C° 0 mm 2 m/S 734 mmHg 94%
    03:00 +4°C° 0 mm 2 m/S 734 mmHg 94%
    04:00 +5°C° 0 mm 2 m/S 734 mmHg 89%
    05:00 +7°C° 0 mm 3 m/S 734 mmHg 84%
    06:00 +8°C° 0 mm 3 m/S 735 mmHg 79%
    07:00 +9°C° 0,1 mm 3 m/S 735 mmHg 77%
    08:00 +10°C° 0,1 mm 4 m/S 735 mmHg 74%
    09:00 +12°C° 0,1 mm 4 m/S 735 mmHg 72%
    10:00 +12°C° 0,2 mm 4 m/S 735 mmHg 71%
    11:00 +13°C° 0,2 mm 4 m/S 735 mmHg 70%
    12:00 +13°C° 0,2 mm 4 m/S 735 mmHg 69%
    13:00 +13°C° 0,1 mm 5 m/S 735 mmHg 68%
    14:00 +13°C° 0,1 mm 5 m/S 734 mmHg 68%
    15:00 +14°C° 0,1 mm 5 m/S 734 mmHg 68%
    16:00 +13°C° 0,1 mm 4 m/S 734 mmHg 71%
    17:00 +13°C° 0,1 mm 4 m/S 734 mmHg 74%
    18:00 +12°C° 0,1 mm 4 m/S 734 mmHg 78%
    19:00 +11°C° 0 mm 4 m/S 734 mmHg 83%
    20:00 +9°C° 0 mm 3 m/S 735 mmHg 89%
    21:00 +8°C° 0 mm 3 m/S 735 mmHg 94%
    22:00 +7°C° 0 mm 2 m/S 735 mmHg 95%
    23:00 +6°C° 0 mm 2 m/S 735 mmHg 96%

    23 Juni, Samstag

    Zeit Temperatur Niederschläge Wind Luftdruck Luftfeuchtigkeit
    00:00 +6°C° 0 mm 2 m/S 735 mmHg 97%
    01:00 +6°C° 0 mm 2 m/S 735 mmHg 97%
    02:00 +6°C° 0 mm 2 m/S 735 mmHg 97%
    03:00 +6°C° 0 mm 2 m/S 735 mmHg 97%
    04:00 +7°C° 0 mm 2 m/S 735 mmHg 94%
    05:00 +8°C° 0 mm 2 m/S 735 mmHg 92%
    06:00 +8°C° 0 mm 2 m/S 735 mmHg 90%
    07:00 +10°C° 0 mm 3 m/S 735 mmHg 84%
    08:00 +11°C° 0 mm 3 m/S 735 mmHg 79%
    09:00 +12°C° 0 mm 3 m/S 736 mmHg 73%
    10:00 +13°C° 0 mm 3 m/S 735 mmHg 70%
    11:00 +14°C° 0 mm 3 m/S 735 mmHg 67%
    12:00 +16°C° 0 mm 3 m/S 735 mmHg 64%
    13:00 +16°C° 0 mm 3 m/S 735 mmHg 63%
    14:00 +17°C° 0 mm 4 m/S 735 mmHg 62%
    15:00 +17°C° 0 mm 4 m/S 734 mmHg 60%
    16:00 +17°C° 0 mm 3 m/S 734 mmHg 64%
    17:00 +16°C° 0 mm 3 m/S 734 mmHg 67%
    18:00 +16°C° 0 mm 3 m/S 734 mmHg 71%
    19:00 +13°C° 0 mm 3 m/S 734 mmHg 77%
    20:00 +12°C° 0 mm 2 m/S 734 mmHg 83%
    21:00 +9°C° 0 mm 2 m/S 734 mmHg 89%
    22:00 +8°C° 0 mm 2 m/S 734 mmHg 90%
    23:00 +7°C° 0 mm 2 m/S 734 mmHg 92%

    24 Juni, Sonntag

    Zeit Temperatur Niederschläge Wind Luftdruck Luftfeuchtigkeit
    00:00 +7°C° 0 mm 2 m/S 734 mmHg 94%
    01:00 +7°C° 0 mm 2 m/S 734 mmHg 94%
    02:00 +6°C° 0 mm 2 m/S 734 mmHg 95%
    03:00 +7°C° 0 mm 1 m/S 733 mmHg 95%
    04:00 +7°C° 0 mm 2 m/S 734 mmHg 92%
    05:00 +8°C° 0 mm 2 m/S 734 mmHg 89%
    06:00 +10°C° 0 mm 2 m/S 734 mmHg 86%
    07:00 +12°C° 0 mm 2 m/S 734 mmHg 79%
    08:00 +14°C° 0 mm 2 m/S 734 mmHg 73%
    09:00 +16°C° 0 mm 3 m/S 734 mmHg 66%
    10:00 +17°C° 0 mm 3 m/S 734 mmHg 63%
    11:00 +18°C° 0 mm 3 m/S 734 mmHg 59%
    12:00 +19°C° 0 mm 3 m/S 734 mmHg 55%
    13:00 +19°C° 0 mm 3 m/S 734 mmHg 55%
    14:00 +19°C° 0 mm 3 m/S 733 mmHg 55%
    15:00 +19°C° 0 mm 3 m/S 733 mmHg 55%
    16:00 +19°C° 0 mm 3 m/S 733 mmHg 60%
    17:00 +18°C° 0 mm 3 m/S 733 mmHg 64%
    18:00 +17°C° 0 mm 3 m/S 733 mmHg 68%
    19:00 +16°C° 0 mm 2 m/S 733 mmHg 71%
    20:00 +14°C° 0 mm 2 m/S 733 mmHg 74%
    21:00 +12°C° 0 mm 2 m/S 733 mmHg 78%
    22:00 +10°C° 0 mm 2 m/S 733 mmHg 80%
    23:00 +10°C° 0 mm 2 m/S 733 mmHg 82%
    Mehr zeigen